Time,TemperatureF,DewpointF,PressureIn,WindDirection,WindDirectionDegrees,WindSpeedMPH,WindSpeedGustMPH,Humidity,HourlyPrecipIn,Conditions,Clouds,dailyrainin,SoftwareType,DateUTC
2013-06-24 00:01:00,71.0,44.0,29.00,North,357,0.0,3.0,38,0.00,,,0.00,,2013-06-24 08:01:00,
2013-06-24 00:12:00,71.0,44.0,29.00,North,357,0.0,3.0,38,0.00,,,0.00,,2013-06-24 08:12:00,
2013-06-24 00:22:00,70.0,43.0,29.00,North,356,0.0,3.0,38,0.00,,,0.00,,2013-06-24 08:22:00,
2013-06-24 00:33:00,70.0,43.0,29.00,North,356,0.0,3.0,38,0.00,,,0.00,,2013-06-24 08:33:00,
2013-06-24 00:43:00,70.0,43.0,29.00,North,356,0.0,0.0,38,0.00,,,0.00,,2013-06-24 08:43:00,
2013-06-24 00:54:00,70.0,43.0,29.00,North,356,0.0,0.0,38,0.00,,,0.00,,2013-06-24 08:54:00,
2013-06-24 01:01:00,69.0,43.0,29.01,North,356,0.0,0.0,39,0.00,,,0.00,,2013-06-24 09:01:00,
2013-06-24 01:12:00,69.0,43.0,29.01,North,356,0.0,0.0,39,0.00,,,0.00,,2013-06-24 09:12:00,
2013-06-24 01:23:00,69.0,44.0,29.01,North,356,0.0,0.0,40,0.00,,,0.00,,2013-06-24 09:23:00,
2013-06-24 01:33:00,68.0,43.0,29.01,North,357,0.0,0.0,41,0.00,,,0.00,,2013-06-24 09:33:00,
2013-06-24 01:43:00,68.0,43.0,29.01,North,357,0.0,0.0,41,0.00,,,0.00,,2013-06-24 09:43:00,
2013-06-24 01:57:00,68.0,43.0,29.01,North,356,0.0,0.0,41,0.00,,,0.00,,2013-06-24 09:57:00,
2013-06-24 02:12:00,68.0,43.0,29.01,North,356,0.0,0.0,41,0.00,,,0.00,,2013-06-24 10:12:00,
2013-06-24 02:22:00,68.0,43.0,29.02,North,356,0.0,0.0,41,0.00,,,0.00,,2013-06-24 10:22:00,
2013-06-24 02:33:00,68.0,43.0,29.02,North,356,0.0,0.0,41,0.00,,,0.00,,2013-06-24 10:33:00,
2013-06-24 02:44:00,67.0,43.0,29.01,North,356,0.0,0.0,42,0.00,,,0.00,,2013-06-24 10:44:00,
2013-06-24 03:01:00,67.0,44.0,29.02,North,357,0.0,0.0,43,0.00,,,0.00,,2013-06-24 11:01:00,
2013-06-24 03:12:00,67.0,44.0,29.02,North,357,0.0,0.0,43,0.00,,,0.00,,2013-06-24 11:12:00,
2013-06-24 03:32:00,66.0,43.0,29.02,North,357,0.0,0.0,44,0.00,,,0.00,,2013-06-24 11:32:00,
2013-06-24 03:43:00,66.0,43.0,29.02,North,357,0.0,0.0,44,0.00,,,0.00,,2013-06-24 11:43:00,
2013-06-24 03:56:00,66.0,43.0,29.02,North,357,0.0,0.0,44,0.00,,,0.00,,2013-06-24 11:56:00,
2013-06-24 04:01:00,65.0,43.0,29.03,North,356,0.0,0.0,45,0.00,,,0.00,,2013-06-24 12:01:00,
2013-06-24 04:12:00,65.0,43.0,29.03,North,356,0.0,0.0,45,0.00,,,0.00,,2013-06-24 12:12:00,
2013-06-24 04:23:00,65.0,43.0,29.03,North,356,0.0,0.0,45,0.00,,,0.00,,2013-06-24 12:23:00,
2013-06-24 04:33:00,65.0,44.0,29.03,North,357,0.0,0.0,46,0.00,,,0.00,,2013-06-24 12:33:00,
2013-06-24 04:44:00,65.0,44.0,29.03,North,357,0.0,0.0,46,0.00,,,0.00,,2013-06-24 12:44:00,
2013-06-24 05:11:00,64.0,44.0,29.03,North,356,0.0,0.0,48,0.00,,,0.00,,2013-06-24 13:11:00,
2013-06-24 05:32:00,64.0,44.0,29.03,North,356,0.0,0.0,49,0.00,,,0.00,,2013-06-24 13:32:00,
2013-06-24 05:42:00,63.0,44.0,29.03,North,356,0.0,0.0,50,0.00,,,0.00,,2013-06-24 13:42:00,
2013-06-24 06:11:00,63.0,45.0,29.04,North,356,0.0,0.0,51,0.00,,,0.00,,2013-06-24 14:11:00,
2013-06-24 06:33:00,63.0,45.0,29.04,North,356,0.0,0.0,52,0.00,,,0.00,,2013-06-24 14:33:00,
2013-06-24 06:43:00,63.0,46.0,29.04,North,356,0.0,0.0,53,0.00,,,0.00,,2013-06-24 14:43:00,
2013-06-24 06:57:00,63.0,46.0,29.04,North,356,0.0,0.0,53,0.00,,,0.00,,2013-06-24 14:57:00,
2013-06-24 07:12:00,64.0,47.0,29.04,North,356,0.0,0.0,53,0.00,,,0.00,,2013-06-24 15:12:00,
2013-06-24 07:24:00,64.0,47.0,29.04,North,356,0.0,0.0,54,0.00,,,0.00,,2013-06-24 15:24:00,
2013-06-24 07:33:00,64.0,47.0,29.04,North,356,0.0,0.0,54,0.00,,,0.00,,2013-06-24 15:33:00,
2013-06-24 07:43:00,64.0,47.0,29.04,North,356,0.0,0.0,54,0.00,,,0.00,,2013-06-24 15:43:00,
2013-06-24 07:55:00,65.0,48.0,29.05,North,356,0.0,0.0,55,0.00,,,0.00,,2013-06-24 15:55:00,
2013-06-24 08:01:00,65.0,48.0,29.05,North,356,0.0,0.0,55,0.00,,,0.00,,2013-06-24 16:01:00,
2013-06-24 08:11:00,65.0,48.0,29.05,North,356,0.0,0.0,55,0.00,,,0.00,,2013-06-24 16:11:00,
2013-06-24 08:23:00,66.0,49.0,29.05,North,356,0.0,0.0,55,0.00,,,0.00,,2013-06-24 16:23:00,
2013-06-24 08:45:00,66.0,49.0,29.04,North,357,0.0,0.0,55,0.00,,,0.00,,2013-06-24 16:45:00,
2013-06-24 08:55:00,67.0,50.0,29.04,North,357,0.0,0.0,54,0.00,,,0.00,,2013-06-24 16:55:00,
2013-06-24 09:01:00,68.0,49.0,29.04,North,357,0.0,0.0,51,0.00,,,0.00,,2013-06-24 17:01:00,
2013-06-24 09:11:00,68.0,49.0,29.04,North,357,0.0,0.0,51,0.00,,,0.00,,2013-06-24 17:11:00,
2013-06-24 09:23:00,70.0,50.0,29.04,North,357,0.0,0.0,49,0.00,,,0.00,,2013-06-24 17:23:00,
2013-06-24 09:33:00,70.0,50.0,29.04,North,357,0.0,0.0,49,0.00,,,0.00,,2013-06-24 17:33:00,
2013-06-24 09:43:00,72.0,51.0,29.04,North,357,0.0,0.0,47,0.00,,,0.00,,2013-06-24 17:43:00,
2013-06-24 09:56:00,75.0,49.0,29.04,North,356,0.0,0.0,40,0.00,,,0.00,,2013-06-24 17:56:00,
2013-06-24 10:01:00,77.0,50.0,29.04,North,355,0.0,0.0,39,0.00,,,0.00,,2013-06-24 18:01:00,
2013-06-24 10:12:00,77.0,50.0,29.04,North,355,0.0,0.0,39,0.00,,,0.00,,2013-06-24 18:12:00,
2013-06-24 10:23:00,78.0,50.0,29.04,North,355,0.0,0.0,38,0.00,,,0.00,,2013-06-24 18:23:00,
2013-06-24 10:33:00,78.0,47.0,29.04,WSW,255,0.0,0.0,33,0.00,,,0.00,,2013-06-24 18:33:00,
2013-06-24 10:43:00,78.0,47.0,29.04,WSW,255,0.0,0.0,33,0.00,,,0.00,,2013-06-24 18:43:00,
2013-06-24 11:01:00,78.0,47.0,29.04,ENE,60,0.0,3.0,33,0.00,,,0.00,,2013-06-24 19:01:00,
2013-06-24 11:12:00,78.0,47.0,29.04,ENE,60,0.0,3.0,33,0.00,,,0.00,,2013-06-24 19:12:00,
2013-06-24 11:24:00,78.0,47.0,29.04,West,261,0.0,3.0,33,0.00,,,0.00,,2013-06-24 19:24:00,
2013-06-24 11:33:00,78.0,45.0,29.04,SSE,167,0.0,3.0,31,0.00,,,0.00,,2013-06-24 19:33:00,
2013-06-24 11:42:00,78.0,45.0,29.04,SSE,167,0.0,3.0,31,0.00,,,0.00,,2013-06-24 19:42:00,
2013-06-24 12:01:00,79.0,45.0,29.03,SE,128,0.0,3.0,30,0.00,,,0.00,,2013-06-24 20:01:00,
2013-06-24 12:11:00,79.0,45.0,29.03,SE,128,0.0,3.0,30,0.00,,,0.00,,2013-06-24 20:11:00,
2013-06-24 12:33:00,80.0,46.0,29.03,ESE,104,0.0,3.0,30,0.00,,,0.00,,2013-06-24 20:33:00,
2013-06-24 12:43:00,80.0,45.0,29.03,NW,320,0.0,3.0,29,0.00,,,0.00,,2013-06-24 20:43:00,
2013-06-24 12:55:00,81.0,44.0,29.03,ENE,63,0.0,3.0,27,0.00,,,0.00,,2013-06-24 20:55:00,
2013-06-24 13:11:00,82.0,44.0,29.03,North,357,0.0,3.0,26,0.00,,,0.00,,2013-06-24 21:11:00,
2013-06-24 13:23:00,84.0,46.0,29.03,SSW,209,0.0,3.0,27,0.00,,,0.00,,2013-06-24 21:23:00,
2013-06-24 13:43:00,85.0,45.0,29.02,South,179,0.0,3.0,25,0.00,,,0.00,,2013-06-24 21:43:00,
2013-06-24 13:54:00,87.0,46.0,29.02,ESE,105,0.0,3.0,24,0.00,,,0.00,,2013-06-24 21:54:00,
2013-06-24 14:12:00,88.0,44.0,29.02,East,88,0.0,3.0,22,0.00,,,0.00,,2013-06-24 22:12:00,
2013-06-24 14:33:00,89.0,44.0,29.02,WSW,249,0.0,3.0,21,0.00,,,0.00,,2013-06-24 22:33:00,
2013-06-24 14:44:00,89.0,45.0,29.01,SSE,156,0.0,3.0,22,0.00,,,0.00,,2013-06-24 22:44:00,
2013-06-24 14:55:00,88.0,43.0,29.01,SSE,156,0.0,3.0,21,0.00,,,0.00,,2013-06-24 22:55:00,
2013-06-24 15:01:00,88.0,43.0,29.01,SSE,156,0.0,3.0,21,0.00,,,0.00,,2013-06-24 23:01:00,
2013-06-24 15:11:00,87.0,44.0,29.01,SE,146,0.0,3.0,22,0.00,,,0.00,,2013-06-24 23:11:00,
2013-06-24 15:22:00,87.0,45.0,29.01,SSE,147,0.0,3.0,23,0.00,,,0.00,,2013-06-24 23:22:00,
2013-06-24 15:43:00,86.0,44.0,29.01,South,184,0.0,3.0,23,0.00,,,0.00,,2013-06-24 23:43:00,
2013-06-24 15:54:00,86.0,43.0,29.01,SE,134,0.0,3.0,22,0.00,,,0.00,,2013-06-24 23:54:00,
2013-06-24 16:22:00,84.0,42.0,29.01,ESE,109,0.0,3.0,23,0.00,,,0.00,,2013-06-25 00:22:00,
2013-06-24 16:32:00,83.0,45.0,29.01,SE,131,0.0,3.0,26,0.00,,,0.00,,2013-06-25 00:32:00,
2013-06-24 16:44:00,83.0,45.0,29.01,SE,131,0.0,3.0,26,0.00,,,0.00,,2013-06-25 00:44:00,
2013-06-24 16:55:00,83.0,44.0,29.01,South,186,0.0,3.0,25,0.00,,,0.00,,2013-06-25 00:55:00,
2013-06-24 17:01:00,83.0,42.0,29.01,South,186,0.0,3.0,24,0.00,,,0.00,,2013-06-25 01:01:00,
2013-06-24 17:33:00,83.0,42.0,29.00,West,269,0.0,3.0,24,0.00,,,0.00,,2013-06-25 01:33:00,
2013-06-24 17:43:00,83.0,42.0,29.00,West,269,0.0,3.0,24,0.00,,,0.00,,2013-06-25 01:43:00,
2013-06-24 17:55:00,83.0,44.0,29.00,ESE,123,0.0,3.0,25,0.00,,,0.00,,2013-06-25 01:55:00,
2013-06-24 18:01:00,83.0,42.0,29.00,ESE,123,0.0,3.0,24,0.00,,,0.00,,2013-06-25 02:01:00,
2013-06-24 18:11:00,83.0,42.0,29.00,ESE,123,0.0,3.0,24,0.00,,,0.00,,2013-06-25 02:11:00,
2013-06-24 18:23:00,83.0,42.0,29.00,South,183,0.0,3.0,24,0.00,,,0.00,,2013-06-25 02:23:00,
2013-06-24 18:33:00,83.0,45.0,29.00,South,183,0.0,3.0,26,0.00,,,0.00,,2013-06-25 02:33:00,
2013-06-24 18:43:00,83.0,45.0,29.00,South,183,0.0,3.0,26,0.00,,,0.00,,2013-06-25 02:43:00,
2013-06-24 18:56:00,83.0,46.0,29.00,SW,231,0.0,3.0,27,0.00,,,0.00,,2013-06-25 02:56:00,
2013-06-24 19:11:00,83.0,45.0,29.00,East,87,0.0,3.0,26,0.00,,,0.00,,2013-06-25 03:11:00,
2013-06-24 19:23:00,83.0,46.0,29.00,West,270,0.0,3.0,27,0.00,,,0.00,,2013-06-25 03:23:00,
2013-06-24 19:33:00,82.0,45.0,29.00,West,270,0.0,3.0,27,0.00,,,0.00,,2013-06-25 03:33:00,
2013-06-24 19:44:00,82.0,45.0,29.00,West,270,0.0,3.0,27,0.00,,,0.00,,2013-06-25 03:44:00,
2013-06-24 20:01:00,82.0,46.0,29.01,WNW,298,0.0,3.0,28,0.00,,,0.00,,2013-06-25 04:01:00,
2013-06-24 20:11:00,82.0,46.0,29.01,WNW,298,0.0,3.0,28,0.00,,,0.00,,2013-06-25 04:11:00,
2013-06-24 20:22:00,81.0,47.0,29.00,West,277,0.0,3.0,30,0.00,,,0.00,,2013-06-25 04:22:00,
2013-06-24 20:33:00,81.0,47.0,29.00,SW,232,0.0,3.0,30,0.00,,,0.00,,2013-06-25 04:33:00,
2013-06-24 20:42:00,81.0,47.0,29.00,SW,232,0.0,3.0,30,0.00,,,0.00,,2013-06-25 04:42:00,
2013-06-24 20:52:00,81.0,47.0,29.00,SW,232,0.0,3.0,30,0.00,,,0.00,,2013-06-25 04:52:00,
2013-06-24 21:01:00,80.0,47.0,29.00,WSW,244,0.0,3.0,31,0.00,,,0.00,,2013-06-25 05:01:00,
2013-06-24 21:11:00,80.0,47.0,29.00,WSW,244,0.0,3.0,31,0.00,,,0.00,,2013-06-25 05:11:00,
2013-06-24 21:22:00,80.0,47.0,29.01,WSW,244,0.0,3.0,32,0.00,,,0.00,,2013-06-25 05:22:00,
2013-06-24 21:32:00,79.0,47.0,29.01,WSW,244,0.0,3.0,33,0.00,,,0.00,,2013-06-25 05:32:00,
2013-06-24 21:44:00,79.0,47.0,29.01,WSW,244,0.0,3.0,33,0.00,,,0.00,,2013-06-25 05:44:00,
2013-06-24 21:52:00,79.0,48.0,29.01,WSW,244,0.0,3.0,34,0.00,,,0.00,,2013-06-25 05:52:00,
2013-06-24 22:01:00,78.0,47.0,29.01,WSW,244,0.0,3.0,34,0.00,,,0.00,,2013-06-25 06:01:00,
2013-06-24 22:11:00,78.0,47.0,29.01,WSW,244,0.0,3.0,34,0.00,,,0.00,,2013-06-25 06:11:00,
2013-06-24 22:21:00,78.0,48.0,29.01,WSW,244,0.0,3.0,35,0.00,,,0.00,,2013-06-25 06:21:00,
2013-06-24 22:33:00,78.0,48.0,29.01,WSW,244,0.0,3.0,35,0.00,,,0.00,,2013-06-25 06:33:00,
2013-06-24 22:43:00,78.0,49.0,29.02,WSW,244,0.0,3.0,36,0.00,,,0.00,,2013-06-25 06:43:00,
2013-06-24 22:52:00,77.0,49.0,29.02,WSW,244,0.0,3.0,37,0.00,,,0.00,,2013-06-25 06:52:00,
2013-06-24 23:01:00,76.0,49.0,29.02,WSW,244,0.0,3.0,38,0.00,,,0.00,,2013-06-25 07:01:00,
2013-06-24 23:11:00,76.0,49.0,29.02,WSW,244,0.0,3.0,38,0.00,,,0.00,,2013-06-25 07:11:00,
2013-06-24 23:33:00,76.0,49.0,29.03,WSW,244,0.0,3.0,39,0.00,,,0.00,,2013-06-25 07:33:00,
2013-06-24 23:43:00,76.0,50.0,29.03,WSW,244,0.0,3.0,40,0.00,,,0.00,,2013-06-25 07:43:00,
2013-06-24 23:52:00,75.0,49.0,29.03,WSW,244,0.0,3.0,40,0.00,,,0.00,,2013-06-25 07:52:00,